Regional Weather Roundup
Issued by NWS

Home | Current Version | Previous Version | Text Only | Print | Product List | Glossary Off
Versions: 1 2 3 4 5 6 7 8 9 10 11 12 13 14 15 16 17 18 19 20 21 22 23 24 25 26 27 28 29 30 31 32 33 34 35 36 37 38 39 40 41 42 43 44 45 46 47 48 49 50

926
ASUS43 KFSD 060102
RWRSD

WEATHER ROUNDUP FOR SOUTH DAKOTA
NATIONAL WEATHER SERVICE SIOUX FALLS SD
700 PM CST FRI FEB 05 2016

NOTE: "FAIR" INDICATES FEW OR NO CLOUDS BELOW 12,000 FEET WITH NO
SIGNIFICANT WEATHER AND/OR OBSTRUCTIONS TO VISIBILITY.


SDZ001>005-009-010-012>017-060200-
NORTHWEST AND NORTH CENTRAL SOUTH DAKOTA

CITY           SKY/WX    TMP DP  RH WIND       PRES   REMARKS
BUFFALO          N/A     31  21  66 W9        30.05F WCI  23
FAITH            N/A     34  21  59 W13       30.13F WCI  25
MOBRIDGE       CLEAR     29  21  72 CALM      30.11F
$$

SDZ012>016-024>037-041>051-057-063-072>074-060200-
SOUTHWEST AND SOUTH CENTRAL SOUTH DAKOTA

CITY           SKY/WX    TMP DP  RH WIND       PRES   REMARKS
RAPID CTY ARPT CLEAR     30  20  66 W7        30.18R WCI  23
PIERRE         CLEAR     32  25  75 SW8       30.18S WCI  25
CUSTER         CLEAR     27  13  55 W12       30.14F WCI  17
ELLSWORTH AFB  CLEAR     31  21  66 W7        30.16S WCI  25
PHILIP         CLEAR     32  24  72 W5        30.19S WCI  27
PINE RIDGE     CLEAR     29  22  75 CALM      30.21S
WINNER         FAIR      31  25  78 W7        30.22R WCI  24
$$

SDZ004>011-016>023-039-040-060200-
NORTHEAST SOUTH DAKOTA

CITY           SKY/WX    TMP DP  RH WIND       PRES   REMARKS
ABERDEEN       CLEAR     30  22  72 CALM      30.16S
WATERTOWN      CLEAR     19  17  92 SW5       30.14S WCI  12
BROOKINGS      CLEAR     21  20  96 W7        30.17R WCI  12
SISSETON         N/A     24  21  88 NW5       30.15R WCI  18
$$

SDZ017-020-022-023-036>040-048>070-060200-
SOUTHEAST SOUTH DAKOTA

CITY           SKY/WX    TMP DP  RH WIND       PRES   REMARKS
SIOUX FALLS    CLOUDY    29  26  89 NW6       30.20R WCI  23
HURON          CLEAR     32  27  81 W9        30.18F WCI  24
MITCHELL       PTCLDY    32  29  88 CALM      30.22R
YANKTON        CLOUDY    34  28  80 NW14      30.22R WCI  24
$$

ABBREVIATIONS USED IN REMARKS
   TC - TEMPERATURE IN CELSIUS
  WCI - WIND CHILL INDEX
   HX - HEAT INDEX
  VSB - VISIBILITY





USA.gov is the U.S. government's official web portal to all federal, state and local government web resources and services.